STARLINK-34624

Last updated on Sat Aug 16 2025 00:02:05 GMT+0000 (Coordinated Universal Time)

1 64805U 25150R 25227.58336806 .00064473 00000+0 14649-2 0 9992 2 64805 70.0001 315.4132 0003387 275.2923 45.4784 15.42680299 5927
UTC large
Height (km)
Speed (km/s)
/
Latitude / Longitude
Inclination (degrees)
Orbital Period (minutes)
Azimuth
Elevation
Range (km)
Doppler Factor

Next 0 passes for location: London (51.5072 / 0.1276)

Sorry there are no passes over London.
STARLINK-34624